Location: Maynard F. Jordan Observatory
(44.9000°N, 68.6700°W)
Time: 23:01:22
(UTC-04:00)

Daily predictions for brighter satellites

Satellite Brightness Start Highest point End
(mag) Time Altitude Azimuth Time Altitude Azimuth Time Altitude Azimuth
Cosmos 2218 Rocket 4.0 18:01:17 10° S 18:07:22 71° E 18:13:30 10° NNE
Cosmos 1420 Rocket 4.4 18:07:54 10° N 18:13:01 44° ENE 18:18:02 10° SE
Cosmos 2237 Rocket 3.8 18:09:51 10° N 18:13:20 16° NE 18:16:49 10° E
BREEZE-M DEB (TANK) 2.1 18:11:28 10° SW 18:13:55 42° SSE 18:15:49 10° ENE
Cosmos 1727 Rocket 4.1 18:07:59 10° N 18:14:20 65° E 18:20:36 10° SSE
Cosmos 1908 4.2 18:11:12 10° SSE 18:14:30 27° E 18:17:49 10° NNE
APEX 4.4 18:13:20 10° SE 18:15:09 15° ESE 18:16:53 10° ENE
Cosmos 2058 3.0 18:11:09 10° N 18:15:17 55° ENE 18:19:21 10° SSE
Cosmos 44 4.3 18:14:25 10° SSE 18:17:47 22° ESE 18:21:07 10° ENE
Abrixas rocket 2.8 18:16:27 10° W 18:19:39 47° N 18:22:48 10° ENE
Cosmos 1626 2.2 18:19:28 10° N 18:23:13 87° W 18:26:57 10° S
H-2A R/B 4.3 18:21:54 10° ESE 18:24:27 17° ENE 18:27:00 10° NNE
Aureole 2 4.4 18:22:27 10° N 18:25:27 50° ENE 18:28:46 10° SE
GP-B 3.0 18:21:10 10° N 18:25:38 74° E 18:30:02 10° S
Cosmos 1400 Rocket 2.9 18:22:29 10° NNW 18:26:33 81° W 18:30:30 10° S
GRACE-1 4.3 18:24:27 10° SSE 18:26:49 33° E 18:29:12 10° NNE
SMAP 4.1 18:22:56 10° S 18:27:27 52° W 18:32:01 10° NNW
Centaur D AC-29 4.0 18:17:39 10° WSW 18:28:32 20° SSW 18:32:51 10° SSE
SKYMED 2 3.7 18:25:24 10° NNE 18:29:40 53° E 18:33:54 10° S
MOS 1 4.3 18:24:22 10° SSE 18:30:01 76° ENE 18:35:44 10° NNW
Cosmos 1743 Rocket 3.8 18:27:38 10° NNW 18:32:01 74° W 18:36:25 10° S
BREEZE-M DEB (TANK) 3.9 18:17:06 10° W 18:32:13 87° NNW 18:36:08 14° E
SL-8 R/B 3.7 18:30:33 10° WSW 18:35:22 79° SSE 18:39:31 14° ENE
Cosmos 2360 Rocket 2.4 18:30:26 10° NNW 18:36:06 76° WSW 18:41:45 10° SSE
Cosmos 2221 2.9 18:32:07 10° SSE 18:36:09 40° E 18:40:15 10° NNE
Cosmos 921 Rocket 3.0 18:36:36 10° NNW 18:41:05 86° ENE 18:45:27 10° SSE
Cosmos 1842 Rocket 3.8 18:38:03 10° SSW 18:42:30 77° W 18:46:59 10° N
COSMOS 2428 2.8 18:37:20 10° NNW 18:42:58 59° ENE 18:48:35 10° SE
CZ-4 R/B 3.1 18:40:19 10° SSW 18:44:16 39° W 18:48:11 10° NNW
Cosmos 1300 4.0 18:41:35 10° SE 18:44:18 19° E 18:44:41 18° E
Cosmos 2084 4.3 18:41:09 10° NNW 18:44:22 26° NE 18:46:00 19° ENE
ATLAS 5 CENTAUR R/B 4.4 18:43:38 10° NNW 18:44:59 11° N 18:46:21 10° NNE
Cosmos 44 Rocket 3.6 18:41:04 10° S 18:45:27 40° ESE 18:49:27 12° NE
Cosmos 2333 Rocket 2.8 18:40:40 10° NNW 18:45:57 36° NE 18:50:25 14° ESE
FREGAT/IRIS 3.7 18:47:07 23° E 18:47:43 25° ENE 18:50:15 10° NNE
Cosmos 1833 4.4 18:43:41 10° SSW 18:49:22 76° WNW 18:55:02 10° NNE
Cosmos 2219 3.6 18:46:01 10° S 18:51:21 41° ESE 18:56:42 10° NE
CZ-4C R/B 2.6 18:47:01 10° S 18:51:49 39° ESE 18:56:39 12° NE
Cosmos 1500 Rocket 4.2 18:48:38 10° NNW 18:52:54 57° W 18:57:07 10° S
DMSP B5D1-3 4.5 18:53:24 10° NNE 18:58:31 65° ESE 19:03:36 10° S
Abrixas 4.0 18:57:17 10° SSW 18:58:09 15° S 18:58:09 15° S
Cosmos 1269 Rocket 4.2 18:53:51 10° S 18:58:55 50° ESE 19:04:01 10° NNE
FENGYUN 3A 3.6 18:53:45 10° SSE 18:59:08 77° ENE 19:04:34 10° N
SPOT 3 Rocket 3.9 18:59:10 10° S 19:04:20 68° WSW 19:09:33 10° NNW
Cosmos 468 4.5 19:01:21 10° SSW 19:06:34 89° WNW 19:11:51 10° NNE
NOSS 0 Rocket 4.2 19:00:41 10° NNW 19:06:39 47° NE 19:10:37 20° ESE
Resurs 01 Rocket 3.0 19:09:57 21° NE 19:09:57 21° NE 19:12:30 10° NNE
FengYun 1-2 T 4.2 19:04:57 10° SSE 19:10:20 59° ENE 19:15:43 10° N
Cosmos 1315 Rocket 3.9 19:08:31 10° NNW 19:12:27 47° W 19:16:24 10° S
Cosmos 1535 Rocket 4.4 19:11:39 10° S 19:17:41 67° E 19:23:45 10° NNE
COSMO-SKYMED 1 3.6 19:13:31 10° N 19:17:43 47° WNW 19:21:52 10° SW
Aureole 2 Rocket 2.6 19:14:32 10° NNW 19:18:25 72° ENE 19:20:31 27° SSE
Cosmos 2098 Rocket 3.4 19:15:00 10° S 19:19:35 82° E 19:25:31 10° N
Sich 1 3.0 19:15:56 10° N 19:20:17 60° E 19:23:42 16° SSE
USA 234 4.2 19:17:51 21° ENE 19:21:19 35° NNE 19:27:06 10° NW
Meteor 2-10 4.0 19:16:54 10° S 19:21:45 51° E 19:26:43 10° NNE
Spot 2 Rocket 4.4 19:23:18 28° ENE 19:23:18 28° ENE 19:27:15 10° N
Cosmos 2219 Rocket 2.1 19:18:32 10° NNW 19:24:10 77° ENE 19:28:19 19° SSE
MOS 1-B Rocket 4.2 19:22:17 27° ESE 19:25:00 45° ENE 19:30:52 10° N
ALOS 2.9 19:20:41 10° S 19:25:16 57° W 19:29:53 10° NNW
Cosmos 1726 2.1 19:24:41 10° S 19:28:23 84° W 19:32:06 10° N
Iridium 4 Rocket 4.0 19:24:11 10° S 19:29:46 73° W 19:35:41 10° N
Cosmos 1110 Rocket 4.0 19:24:29 10° NNW 19:29:47 61° ENE 19:31:54 35° SE
Cosmos 1805 Rocket 3.8 19:27:20 10° NNW 19:31:43 68° W 19:36:05 10° S
SJ-6B 2.5 19:35:41 71° SE 19:36:02 80° ENE 19:39:47 10° N
Lacrosse 5 rocket 3.5 19:34:58 10° NW 19:37:40 16° N 19:38:40 15° NNE
Cosmos 1666 Rocket 3.5 19:36:26 10° N 19:40:49 85° W 19:43:26 23° S
BREEZE-M DEB (TANK) 3.7 19:28:30 10° WNW 19:46:29 89° SSW 19:48:19 46° ESE
Cosmos 1633 Rocket 3.0 19:42:54 10° N 19:47:21 88° W 19:48:39 46° S
Cosmos 1821 Rocket 4.3 19:42:12 10° SSW 19:48:19 66° W 19:54:35 10° N
Cosmos 1934 Rocket 4.0 19:43:51 10° S 19:50:14 84° W 19:56:39 10° N
Gbstr 26 Del rocket 4.0 19:47:12 10° WNW 19:52:18 60° SW 19:54:25 38° SSE
Abrixas rocket 4.0 19:53:22 10° WNW 19:55:20 30° NW 19:55:20 30° NW
In-Cosmos 22 Rocket 4.2 19:51:30 10° NNW 19:57:16 83° W 20:01:27 20° S
Envisat 3.3 19:58:35 51° NNE 19:58:35 51° NNE 20:02:41 10° N
H-2A R/B 3.9 19:55:43 17° SSW 19:58:22 42° W 20:02:07 10° NNW
Cosmos 2237 Rocket 2.1 19:52:39 10° NNW 19:58:24 78° ENE 19:59:13 64° SE
Cosmos 44 4.0 19:54:31 10° WSW 19:58:41 44° NW 20:00:11 32° N
Thor Agena Rocket 4.3 19:59:29 10° N 20:04:26 51° WNW 20:09:19 10° SW
Cosmos 2227 Rocket 3.1 20:01:40 10° S 20:04:49 34° S 20:04:49 34° S
SL-16 R/B 3.0 20:04:11 10° NNW 20:08:15 37° NNE 20:08:15 37° NNE
Meteor 2-3 Rocket 3.7 20:10:06 10° N 20:15:17 69° NNE 20:15:17 69° NNE
SL-8 R/B 4.3 20:13:22 10° W 20:17:29 52° NW 20:17:29 52° NW
Cosmos 1300 4.5 20:16:21 10° SW 20:19:47 31° WNW 20:20:01 31° WNW
Cosmos 1980 3.9 20:16:36 10° NNW 20:22:13 65° WSW 20:22:46 61° SW
Cosmos 1605 Rocket 4.1 20:16:35 10° SSW 20:22:39 69° W 20:28:45 10° N
USA 267 3.4 20:28:50 56° S 20:28:50 56° S 20:34:10 10° SW
Cosmos 967 Rocket 4.4 20:23:45 10° NW 20:30:12 86° WSW 20:30:12 86° WSW
Cosmos 2333 Rocket 3.4 20:24:56 10° NW 20:30:15 40° WSW 20:32:29 28° SSW
ATLAS 5 CENTAUR R/B 4.2 20:28:24 10° NNW 20:31:01 17° NNE 20:31:01 17° NNE
CZ-4C R/B 3.3 20:35:12 10° WSW 20:40:17 41° NW 20:41:54 34° N
Cosmos 2297 Rocket 4.4 20:39:11 10° SSW 20:39:56 14° SSW 20:39:56 14° SSW
Resurs 01 Rocket 3.7 20:47:33 24° NW 20:47:33 24° NW 20:49:33 10° NNW
USA 234 3.8 21:05:13 51° NNW 21:05:13 51° NNW 21:10:11 10° NW
